Regional Weather Roundup
Issued by NWS Grand Forks, ND

Home | Current Version | Previous Version | Graphics & Text | Print | Product List | Glossary On
Versions: 1 2 3 4 5 6 7 8 9 10 11 12 13 14 15 16 17 18 19 20 21 22 23 24 25 26 27 28 29 30 31 32 33 34 35 36 37 38 39 40 41 42 43 44 45 46 47 48 49 50
000
ASUS43 KFGF 161431
RWRFGF
PRAIRIE TO PINES  WEATHER ROUNDUP
NATIONAL WEATHER SERVICE EASTERN NORTH DAKOTA/GRAND FORKS ND
900 AM CDT TUE SEP 16 2014

 **SATELLITE DATA USED TO AUGMENT SKY COVER AT AUTOMATED STATIONS**
 *****  WEATHER ACROSS EASTERN NORTH DAKOTA  *****

CITY           SKY/WX    TMP DP  RH WIND       PRES   REMARKS
GRAND FORKS    MOSUNNY   50  42  74 S5        30.03F
GRAND FRKS AFB SUNNY     50  42  73 SW5       30.03F
GRAND FRKS NWS   N/A     54 N/A N/A W9          N/A
DEVILS LAKE    SUNNY     54  39  58 W7        30.02S
FARGO          SUNNY     51  39  63 S12       30.08F
WAHPETON ARPT  SUNNY     46  37  71 SE5       30.10F
$$

 ***** WEATHER ACROSS CENTRAL AND WESTERN NORTH DAKOTA  *****

CITY           SKY/WX    TMP DP  RH WIND       PRES   REMARKS
BISMARCK       SUNNY     47  41  80 E3        30.04F
MINOT          SUNNY     51  41  68 SW8       30.00F
JAMESTOWN      SUNNY     46  40  79 S5        30.05F
MINOT AFB      SUNNY     50  44  79 SW5       30.00S
GARRISON         N/A     50  45  83 SE3       30.02S
WILLISTON      SUNNY     40  34  79 CALM      30.03R HAZE
DICKINSON      SUNNY     46  41  82 SW3       30.00F
HETTINGER      SUNNY     42  38  85 CALM      30.03F
$$

 *****  OTHER AIRPORT OBSERVATIONS IN OUR AREA  *****

CITY           SKY/WX    TMP DP  RH WIND       PRES   REMARKS
WALHALLA         N/A     54  41  62 NW3       30.00R
GRAFTON AIRPOR FAIR      52  43  71 SW3       30.00F
VALLEY CITY AR FAIR      52  41  66 SW14      30.06F
CANDO          FAIR      52  43  71 W7        30.03S
CAVALIER APRT  CLOUDY    55  43  62 NW7       29.99S
GWINNER        SUNNY     50  39  66 SW8       30.09F
ROLLA          FAIR      54  41  62 SW9       30.01F
 ***** THE ABOVE OBSERVATIONS ARE NON NWS ARE NOT QUALITY
       CONTROLLED AND MAY MIS-REPORT RAIN FOR SNOW...
$$

  *****  WEATHER ACROSS NORTHERN MINNESOTA  *****

CITY           SKY/WX    TMP DP  RH WIND       PRES   REMARKS
FLAG ISLAND    CLOUDY    54  43  66 W12       29.96R
WARROAD        PTSUNNY   50  43  76 W9        29.99S
ROSEAU         CLOUDY    52  43  71 SW8       30.00R
HALLOCK        MOSUNNY   52  45  76 CALM      30.01S
THF RVR FALLS  CLOUDY    50  39  66 SW9       30.04F
BAUDETTE       CLOUDY    50  40  68 VRB3      29.99S
WASKISH        PTSUNNY   55  45  67 SW12G17   30.03S
CROOKSTON      SUNNY     48  41  76 S9        30.06F
STEPHEN NDAWN    N/A     50  43  76 S8          N/A
GREENBUSH NDAW   N/A     52  43  71 SW9         N/A
$$
  *****  WEATHER ACROSS CENTRAL AND WEST MINNESOTA  *****

CITY           SKY/WX    TMP DP  RH WIND       PRES   REMARKS
FOSSTON        SUNNY     48  39  71 SW10      30.08F
BEMIDJI        SUNNY     53  39  59 W14G20    30.07S
PARK RAPIDS    SUNNY     50  41  71 W8        30.10F
ELBOW LAKE     FAIR      49  42  76 S7        30.12S
WADENA         SUNNY     52  41  66 W5        30.11S
DETROIT LAKES  SUNNY     52  41  66 SW7       30.10F
MOORHEAD       SUNNY     48  43  81 CALM      30.10S
FERGUS FALLS   SUNNY     48  37  66 S6        30.12F
MORRIS MN      SUNNY     50  43  76 S5        30.12S
STAPLES        SUNNY     52  39  62 SW6       30.11F
$$
  *****  WEATHER ELSEWHERE ACROSS MINNESOTA  *****

CITY           SKY/WX    TMP DP  RH WIND       PRES   REMARKS
DULUTH         MOSUNNY   52  37  56 W17       30.08F
INTRNTL FALLS  PTSUNNY   50  43  77 W8        29.98S
ELY            PTSUNNY   48  41  76 SW6       30.01F
CLOQUET        SUNNY     52  37  58 W10       30.09S
WHEATON        SUNNY     52  43  71 S7        30.12F
BRAINERD       SUNNY     46  41  82 SW5       30.12F
HIBBING        SUNNY     50  40  68 VRB5      30.06F
ALEXANDRIA     SUNNY     50  41  71 SW7       30.14F
SAINT CLOUD    SUNNY     50  42  74 SW5       30.15F
MINNEAPOLIS    SUNNY     49  40  71 SW5       30.18F
$$

  *****  WEATHER ACROSS SOUTH DAKOTA  *****

CITY           SKY/WX    TMP DP  RH WIND       PRES   REMARKS
SIOUX FALLS    SUNNY     51  44  77 S9        30.17F
BROOKINGS      NOT AVBL
WATERTOWN      SUNNY     46  42  86 S8        30.13F
HURON          SUNNY     49  42  77 S12G20    30.10F
SISSETON         N/A     57  40  52 SW13      30.09F
ABERDEEN       SUNNY     47  42  83 S13       30.08F
MITCHELL       SUNNY     49  45  86 S10       30.13F
PIERRE         SUNNY     50  43  77 SE12      30.01F
MOBRIDGE       SUNNY     51  44  77 S8        30.01F
RAPID CITY     SUNNY     55  46  71 NW8       30.03S
$$

  *****  SOME WEATHER IN NEARBY STATES *****

CITY           SKY/WX    TMP DP  RH WIND       PRES   REMARKS
GLASGOW MT     SUNNY     48  36  63 SE5       30.00S
GREAT FALLS MT MOCLDY    46  38  73 SW6       30.01S
CHEYENNE WY    SUNNY     60  38  43 W14       30.22S
SCOTTSBLUFF NE SUNNY     52  50  93 NW6       30.10S FOG
OMAHA NE       MOSUNNY   49  46  90 SE3       30.25S FOG
DES MOINES IA  SUNNY     51  47  86 CALM      30.25S
DAVENPORT IA   SUNNY     51  46  83 CALM      30.25S
CHICAGO IL     MOSUNNY   53  45  74 N5        30.21S
EAU CLAIRE WI  SUNNY     48  43  82 SW7       30.18F
LA CROSSE WI   MOSUNNY   47  46  97 S6        30.21F
$$

  *****  SOME NATIONAL WEATHER *****

CITY           SKY/WX    TMP DP  RH WIND       PRES   REMARKS
LA GUARDIA NY  LGT RAIN  58  56  93 NE5       30.02F FOG
RALEIGH NC     MOSUNNY   76  66  71 CALM      30.06S
ATLANTA GA     PTSUNNY   75  71  87 NW7       30.10S
NEW ORLEANS LA MOSUNNY   83  74  74 CALM      30.07S
OKLAHOMA CITY  PTSUNNY   72  66  83 N3        30.15F
ALBUQUERQUE NM CLOUDY    65  57  75 N6        30.31R
SALT LAKE CITY PTCLDY    64  45  49 SE7       30.10S
LOS ANGELES CA PTCLDY    76  64  66 CALM      29.76S
BOISE ID       CLOUDY    70  52  52 SE7       29.96F
SEATTLE WA     MOCLDY    59  53  80 S7        29.90R
$$

*** WEATHER ACROSS MANITOBA...SASKATCHEWAN AND ONTARIO ***
                ***ONTARIO***

CITY           SKY/WX    TMP DP  RH WIND       PRES   REMARKS
GERALDTON      LGT RAIN  48  43  81 W9        29.88
THUNDER BAY    PTSUNNY   50  45  81 W7        29.95F
SIOUX LOOKOUT  PTSUNNY   50  46  87 N8        29.92R
TORONTO        MOSUNNY   59  43  55 NW13      30.10
BIG TROUT LK   PTSUNNY   32  28  86 N10       30.04R WCI  24
PICKLE LAKE    PTSUNNY   34  28  80 VRB7      29.99R
DRYDEN         CLOUDY    50  46  87 W5        29.94R
KENORA         PTSUNNY   52  43  71 W7        29.96R
$$
                *** MANITOBA***

CITY           SKY/WX    TMP DP  RH WIND       PRES   REMARKS
BRANDON        PTSUNNY   48  41  76 W3        30.00S
DAUPHIN        CLOUDY    48  46  93 NE3       30.01S
ISLAND LAKE    MOSUNNY   34  25  69 N8        30.13R
PILOT MOUND      N/A     46  41  81 SW5         N/A
THE PAS        CLOUDY    36  34  93 E10       30.07F
THOMPSON       PTSUNNY   28  27  93 N2        30.15S
WINNIPEG       PTSUNNY   54  46  76 N6        29.98S
LYNN LAKE      PTSUNNY   30  25  80 MISG      30.14S
CHURCHILL      FLURRIES  34  27  75 N18G25    30.08S WCI  23
GILLAM         MOSUNNY   32  28  86 NW14      30.12S WCI  22
$$
                ***SASKATCHEWAN***

CITY           SKY/WX    TMP DP  RH WIND       PRES   REMARKS
ESTEVAN        MOSUNNY   46  39  76 SW6       30.01S
KINDERSLEY     PTCLDY    45  39  81 S5        29.94S
LLOYDMINSTER   PTCLDY    48  45  87 CALM      29.91F
PRINCE ALBERT  MOSUNNY   45  43  93 E8        29.94S
REGINA         MOSUNNY   45  41  87 SE3       29.99S
YORKTON        PTSUNNY   48  43  81 VRB2      29.96F
N. BATTLEFORD  CLEAR     45  43  93 N2        29.94S
LA RONGE       CLOUDY    39  37  93 E12G20    29.99F
SASKATOON      MOSUNNY   46  41  81 S6        29.94S
SWIFT CURRENT    N/A     52  41  66 SW13      29.96
$$
NOTE: THESE ARE AUTOMATED STATIONS WITH LIMITED QUALITY CONTROL
      "FAIR" INDICATES FEW OR NO CLOUDS BELOW 12,000 FEET WITH NO
      SIGNIFICANT WEATHER AND/OR OBSTRUCTIONS TO VISIBILITY.
      SKY/WX - SKY CONDITION AND SIGNIFICANT WEATHER.
      TMP - AIR TEMPERATURE.    DP   - DEWPOINT TEMPERATURE.
      RH  - RELATIVE HUMIDITY.  PRES - PRESSURE.
      HX  - HEAT INDEX.         WCI  - WIND CHILL INDEX.
$



USA.gov is the U.S. government's official web portal to all federal, state and local government web resources and services.